"Time","Temp","Dewpoint","Humidity","Pressure","Direction","Speed","Gust","Precip","PrecipRate"
"00:04:58","21.9","11.2","63","30.42","276","4.3","10.4","0.00","0.00"
"00:09:58","21.9","11.2","63","30.42","270","3.1","11.5","0.00","0.00"
"00:14:56","21.8","11.1","63","30.42","280","3.5","9.2","0.00","0.00"
"00:19:56","21.8","11.1","63.2","30.42","264","3.1","10.4","0.00","0.00"
"00:24:57","21.6","11.1","63.5","30.42","266","2.5","6","0.00","0.00"
"00:29:58","21.6","11.3","64","30.44","274","2.6","6","0.00","0.00"
"00:34:59","21.6","11.3","64","30.44","281","2.7","5.8","0.00","0.00"
"00:39:56","21.5","11.2","64","30.44","282","2.2","5","0.00","0.00"
"00:44:57","21.3","11.1","64.4","30.45","258","2.1","4","0.00","0.00"
"00:49:58","21","11.2","65.2","30.45","240","2.4","6","0.00","0.00"
"00:54:59","21.1","11.3","65.3","30.45","266","2.8","6","0.00","0.00"
"00:59:59","21.3","11.4","65","30.45","290","3.8","8.1","0.00","0.00"
"01:04:56","21.5","11.4","64.7","30.45","303","5.3","11.5","0.00","0.00"
"01:09:58","21.6","11.4","64.3","30.45","301","4.3","10.4","0.00","0.00"
"01:14:59","21.6","11.5","64.8","30.46","270","3.3","9.2","0.00","0.00"
"01:19:59","21.5","11.3","64.3","30.46","240","3.2","6","0.00","0.00"
"01:24:56","21.5","11.3","64.5","30.46","239","1.4","5","0.00","0.00"
"01:29:57","21.4","11.2","64.4","30.48","263","1.3","4.6","0.00","0.00"
"01:34:58","21.2","11.3","65","30.48","255","1.5","3.5","0.00","0.00"
"01:39:59","20.9","11.1","65.3","30.48","264","1.9","5","0.00","0.00"
"01:44:56","20.9","11.3","66","30.48","284","2.1","6","0.00","0.00"
"01:49:57","21","11.4","66","30.48","269","1.3","3.5","0.00","0.00"
"01:54:58","20.9","11.2","65.6","30.48","265","0.4","2.3","0.00","0.00"
"01:59:59","20.7","11","65.6","30.50","159","1","4","0.00","0.00"
"02:04:59","20.5","10.9","66","30.50","176","1.2","3.5","0.00","0.00"
"02:09:56","19.9","10.6","66.7","30.50","209","2.7","4","0.00","0.00"
"02:14:58","19.6","10.7","68","30.50","217","1.7","3.5","0.00","0.00"
"02:19:59","19.7","10.8","68","30.50","222","1.5","3.5","0.00","0.00"
"02:24:56","19.8","10.9","68","30.50","225","0.6","2.3","0.00","0.00"
"02:29:56","19.8","10.9","68","30.51","225","0.9","2.3","0.00","0.00"
"02:34:57","20","10.8","67.3","30.51","225","0.9","3.5","0.00","0.00"
"02:39:58","19.9","11.1","68.1","30.51","225","0.5","3","0.00","0.00"
"02:44:59","19.8","10.9","68","30.51","225","1.2","3.5","0.00","0.00"
"02:49:56","19.6","10.7","68","30.50","249","1.5","4","0.00","0.00"
"02:54:57","19.7","11","68.3","30.50","304","1.5","4","0.00","0.00"
"02:59:58","19.8","10.9","68","30.51","321","2.5","5","0.00","0.00"
"03:04:59","19.6","11.1","68.9","30.51","306","2.6","4.6","0.00","0.00"
"03:09:56","19.5","10.8","68.5","30.51","307","0.7","2.3","0.00","0.00"
"03:14:58","19.4","10.6","68","30.52","307","1.1","2.3","0.00","0.00"
"03:19:59","19.3","10.7","68.7","30.52","307","0.4","2.3","0.00","0.00"
"03:24:59","18.8","10.4","69.5","30.52","306","1.5","3.5","0.00","0.00"
"03:29:56","18.8","10.7","70.2","30.52","312","2.3","4","0.00","0.00"
"03:34:58","19.1","10.9","69.9","30.51","305","1.8","4","0.00","0.00"
"03:39:59","19.3","10.8","69","30.51","280","1.3","4","0.00","0.00"
"03:44:56","19.3","10.8","69","30.52","301","1.9","5","0.00","0.00"
"03:49:57","19.3","10.8","69","30.52","5","1.3","5","0.00","0.00"
"03:54:58","19.1","10.7","69.2","30.52","297","2.3","5","0.00","0.00"
"03:59:59","19.1","10.6","69","30.52","302","1.9","4","0.00","0.00"
"04:04:59","19.3","10.7","68.6","30.52","306","2.1","5","0.00","0.00"
"04:09:56","19.5","10.6","68","30.52","340","2.4","6","0.00","0.00"
"04:14:57","19.6","10.7","68","30.53","336","2","5","0.00","0.00"
"04:19:58","19.6","10.6","67.6","30.53","328","2.9","9","0.00","0.00"
"04:24:59","19.7","10.5","67","30.53","336","3","6","0.00","0.00"
"04:29:56","19.7","10.6","67.5","30.53","338","4.6","15","0.00","0.00"
"04:34:57","19.9","10.8","67.5","30.52","338","4.9","11.5","0.00","0.00"
"04:39:58","20.1","10.9","67","30.52","331","4.6","11","0.00","0.00"
"04:44:59","20.3","11","66.7","30.52","324","4.4","10.4","0.00","0.00"
"04:49:56","20.5","10.9","66.1","30.52","333","5.7","13","0.00","0.00"
"04:54:57","20.7","11.1","66","30.52","327","5.4","15","0.00","0.00"
"04:59:58","20.7","11","65.5","30.53","326","5.1","12","0.00","0.00"
"05:04:58","20.8","10.9","65","30.53","283","3.4","11.5","0.00","0.00"
"05:09:56","20.7","11","65.5","30.53","333","4.6","10.4","0.00","0.00"
"05:14:57","20.6","11","66","30.53","328","4.8","9.2","0.00","0.00"
"05:19:58","20.6","10.8","65.6","30.53","315","4.6","8.1","0.00","0.00"
"05:24:59","20.5","10.7","65.2","30.53","324","4.7","9.2","0.00","0.00"
"05:29:56","20.5","10.9","66","30.53","315","4.6","10.4","0.00","0.00"
"05:34:56","20.4","10.8","66","30.53","310","4.2","9","0.00","0.00"
"05:39:58","20.3","10.7","66","30.53","293","2.6","9.2","0.00","0.00"
"05:44:59","20.1","10.7","66.3","30.54","335","3.2","9","0.00","0.00"
"05:49:59","19.9","10.7","67","30.54","318","3.6","9.2","0.00","0.00"
"05:54:56","19.9","10.7","67","30.54","312","2.7","9.2","0.00","0.00"
"05:59:57","19.8","10.6","67","30.55","315","3.9","7","0.00","0.00"
"06:04:57","19.8","10.6","67.2","30.55","322","3.7","6","0.00","0.00"
"06:09:59","19.7","10.5","67","30.55","333","2.2","6","0.00","0.00"
"06:14:57","19.6","10.6","67.7","30.56","332","1.8","5","0.00","0.00"
"06:19:58","19.5","10.6","68","30.56","298","1.1","5","0.00","0.00"
"06:24:59","19.4","10.3","67.4","30.56","297","0.8","3.5","0.00","0.00"
"06:29:56","19.2","10.3","67.9","30.58","298","0.7","3.5","0.00","0.00"
"06:34:57","19","10.2","68.2","30.58","298","0.4","1.2","0.00","0.00"
"06:39:58","18.8","10.3","69","30.58","298","0.4","3.5","0.00","0.00"
"06:44:59","18.5","10.1","69.2","30.59","298","0","0","0.00","0.00"
"06:49:56","18.3","10.1","70","30.59","287","1.4","3.5","0.00","0.00"
"06:54:57","18.4","10.2","70","30.59","266","1.5","3.5","0.00","0.00"
"06:59:58","18.3","10.1","70","30.60","273","1.5","3.5","0.00","0.00"
"07:04:58","18.3","10.2","70.3","30.60","291","1.8","3.5","0.00","0.00"
"07:09:59","18.3","10.3","70.4","30.60","300","2","3.5","0.00","0.00"
"07:14:57","18.3","10.1","70","30.61","297","1.7","3.5","0.00","0.00"
"07:19:58","18.3","10.3","70.5","30.61","297","0.7","3.5","0.00","0.00"
"07:24:59","18.2","10.3","70.6","30.61","302","1","4","0.00","0.00"
"07:29:56","18.1","10.3","71","30.61","303","2.3","6","0.00","0.00"
"07:34:57","18.1","10.3","71","30.61","304","2.2","5.8","0.00","0.00"
"07:39:58","18.1","10.1","70.3","30.61","309","1.8","3.5","0.00","0.00"
"07:44:59","18.1","10","70","30.62","326","2.1","4","0.00","0.00"
"07:49:56","18.2","10.1","70","30.62","328","2.3","5","0.00","0.00"
"07:54:58","18.2","10.1","70.2","30.62","301","1.6","3.5","0.00","0.00"
"07:59:59","18.2","10.3","70.8","30.64","294","0.9","3","0.00","0.00"
"08:04:56","18.2","10.2","70.4","30.64","294","0.5","3.5","0.00","0.00"
"08:09:57","18.2","10.3","70.7","30.64","285","0.4","3.5","0.00","0.00"
"08:14:59","18.4","10.4","70.3","30.65","249","1.7","4","0.00","0.00"
"08:19:56","18.8","10.6","70","30.65","290","2.1","4","0.00","0.00"
"08:24:57","19.4","11.1","69.7","30.65","289","2.2","4","0.00","0.00"
"08:29:58","19.9","11.4","69","30.65","273","1.2","3.5","0.00","0.00"
"08:34:59","20.4","11.7","68.5","30.65","330","1.7","5","0.00","0.00"
"08:39:56","20.9","11.8","67.4","30.65","325","1.2","3.5","0.00","0.00"
"08:44:57","21.5","11.9","66.1","30.65","322","1.9","4","0.00","0.00"
"08:49:58","22","12.1","65.4","30.65","342","1.6","5","0.00","0.00"
"08:54:59","22.5","12.4","64.6","30.65","342","2.3","5","0.00","0.00"
"08:59:56","23","12.4","63.3","30.65","335","1.8","4","0.00","0.00"
"09:04:56","23.4","12.5","62.7","30.65","334","2.6","6","0.00","0.00"
"09:09:57","23.4","12.2","61.7","30.65","317","3.1","6","0.00","0.00"
